Location: G�ppingen
(48.7000°N, 9.6670°E)
Time: 15:59:59
(UTC+02:00)

Tiangong 1 - Visible Passes

Search period start: 24 June 2017 00:00
Search period end: 04 July 2017 00:00
Orbit: 321 x 345 km, 42.8° (Epoch: 23 June)

Date Brightness Start Highest point End Pass type
(mag) Time Alt. Az. Time Alt. Az. Time Alt. Az.
24 Jun 2.2 22:27:58 10° SW 22:30:11 21° S 22:32:08 11° ESE visible
25 Jun 3.4 00:03:04 10° WSW 00:03:17 11° WSW 00:03:17 11° WSW visible
25 Jun 2.0 22:47:01 10° WSW 22:49:21 24° S 22:50:34 18° SE visible
26 Jun 2.2 23:06:15 10° WSW 23:08:30 21° S 23:08:52 21° S visible
27 Jun 2.8 23:25:43 10° WSW 23:27:03 15° SSW 23:27:03 15° SSW visible
28 Jun 2.3 22:09:18 10° WSW 22:11:33 22° S 22:13:47 10° SE visible
29 Jun 2.7 22:28:39 10° WSW 22:30:31 16° SSW 22:32:04 11° SSE visible
30 Jun 3.3 22:49:04 10° SSW 22:49:22 10° SSW 22:49:41 10° SSW visible
